Location: Bouchavesnes-Bergen
(49.9859°N, 2.9203°E)
Time: 03:51:47
(UTC+00:00)

CZ-2D R/B - Pass Details

Date: 09 March 2021
Orbit: 792 x 844 km, 98.7° (Epoch: 11 April)

Event Time Altitude Azimuth Distance (km) Brightness Sun altitude
Rises 01:21:43 0° 16° (NNE) 3,320 6.1 -41.2°
Reaches altitude 10° 01:24:03 10° 19° (NNE) 2,391 5.2 -41.1°
Enters shadow 01:25:32 19° 22° (NNE) 1,829 4.4 -41.0°
